Home   Weather   Springfield   Past weeks
Flag for USA

Past Weather in Springfield, Missouri, USA — Yesterday and Last 2 Weeks

Now
82 °F

Sunny.


Feels Like: 83 °F
Forecast: 82 / 64 °F
Wind: 5 mph from Southwest

Location: Springfield Regional Airport

Current Time: Jun 18, 2019 at 6:46:39 pm

Latest Report: Jun 18, 2019 at 5:52 pm


Visibility: 10 mi

Pressure: 29.79 "Hg

Humidity: 55%

Dew Point: 64 °F

Location of SpringfieldLocation

Past Weather in Springfield — Graph

°F

Springfield Temperature Yesterday

Maximum temperature yesterday: 78 °F (at 4:00 pm)
Minimum temperature yesterday: 67 °F (at 4:52 am)
Average temperature yesterday: 71 °F

High & Low Weather Summary for the Past Weeks

 TemperatureHumidityPressure
High87 °F (Jun 5, 2:52 pm)97% (Jun 8, 4:09 am)30.29 "Hg (Jun 8, 4:09 am)
Low53 °F (Jun 11, 3:52 am)31% (Jun 10, 3:52 pm)29.71 "Hg (Jun 7, 3:52 am)
Average71 °F73%29.92 "Hg
* Reported Jun 3 4:52 pm — Jun 18 4:52 pm, Springfield. Weather by CustomWeather, © 2019

Note: Actual official high and low records may vary slightly from our data, if they occured in-between our weather recording intervals... More about our weather records

Advertising

Springfield Weather History for the Previous 24 Hours

Scroll right to see more
 ConditionsComfort  
Time TempWeatherWind HumidityBarometerVisibility
4:52 pm
Tue, Jun 18
82 °FScattered clouds.6 mph56%29.82 "Hg10 mi
3:52 pm83 °FPartly sunny.7 mph59%29.85 "Hg10 mi
2:52 pm82 °FBroken clouds.No wind56%29.87 "Hg10 mi
1:52 pm79 °FBroken clouds.3 mph62%29.89 "Hg10 mi
1:20 pm80 °FPartly sunny.5 mph62%29.93 "Hg10 mi
12:52 pm81 °FPassing clouds.3 mph62%29.90 "Hg10 mi
12:16 pm78 °FScattered clouds.5 mph71%29.95 "Hg10 mi
12:07 pm76 °FPartly sunny.No wind74%29.95 "Hg10 mi
11:34 am75 °FOvercast.No wind76%29.95 "Hg10 mi
10:52 am72 °FLow clouds.5 mph81%29.93 "Hg10 mi
10:11 am71 °FLow clouds.No wind84%29.96 "Hg10 mi
9:52 am69 °FLow clouds.5 mph90%29.92 "Hg10 mi
8:52 am67 °FFog.3 mph93%29.91 "Hg5 mi
8:18 am66 °FFog.No wind96%29.95 "Hg1 mi
8:06 am66 °FFog.3 mph93%29.94 "Hg1 mi
7:52 am66 °FFog.No wind96%29.91 "Hg1 mi
6:52 am66 °FFog.No wind93%29.90 "Hg0 mi
6:07 am65 °FFog.No wind94%29.93 "Hg0 mi
5:30 am64 °FFog.3 mph94%29.92 "Hg2 mi
5:13 am64 °FFog.No wind97%29.92 "Hg0 mi
4:52 am65 °FFog.No wind91%29.88 "Hg2 mi
4:16 am64 °FPassing clouds.No wind94%29.91 "Hg10 mi
3:52 am64 °FPassing clouds.No wind94%29.88 "Hg8 mi
3:40 am63 °FFog.3 mph93%29.91 "Hg2 mi
3:20 am65 °FFog.No wind94%29.92 "Hg3 mi
3:09 am65 °FFog.No wind91%29.93 "Hg2 mi
2:52 am65 °FClear.No wind94%29.90 "Hg10 mi
2:18 am66 °FPassing clouds.No wind90%29.95 "Hg10 mi
2:06 am66 °FMostly cloudy.No wind93%29.96 "Hg10 mi
1:52 am67 °FPassing clouds.No wind90%29.93 "Hg10 mi
12:52 am67 °FClear.5 mph90%29.93 "Hg10 mi
11:52 pm
Mon, Jun 17
70 °FPassing clouds.5 mph84%29.91 "Hg10 mi
10:52 pm70 °FOvercast.7 mph84%29.91 "Hg10 mi
9:52 pm72 °FPartly cloudy.5 mph78%29.89 "Hg10 mi
9:26 pm73 °FOvercast.5 mph76%29.92 "Hg10 mi
9:08 pm73 °FMostly cloudy.9 mph76%29.92 "Hg10 mi
8:52 pm74 °FMostly cloudy.9 mph76%29.88 "Hg10 mi
8:16 pm76 °FMostly cloudy.No wind74%29.91 "Hg10 mi
7:52 pm75 °FPartly sunny.No wind76%29.87 "Hg10 mi
6:52 pm76 °FBroken clouds.5 mph72%29.87 "Hg10 mi
Weather by CustomWeather, © 2019

See weather overview